O3B FM13 (43234 NORAD) Tracking and Keplerian Element Data

This shows tracking and keplerian element data for the satellite.

Feedback or suggestion? Click here.




ElementValue
Catalog43234
NameO3B FM13
Epoch Orbit1252
Epoch Day318.92220462
Epoch Year2018
RAAN41.1141
Inclination0.038
Eccentricity0.0004437
Argument of Perigee221.1768
Mean Anonmoly97.6646
Mean Motion5.00112925
Decay Rate-2.5E-07
L11 43234U 18024D 18318.92220462 -.00000025 00000-0 00000-0 0 9997
L22 43234 0.0380 41.1141 0004437 221.1768 97.6646 5.00112925 12529

Live tracking and technical data element details for O3B FM13 (NORAD 43234). O3B FM13 can be tracked NOW for your location showing map with azimuth and elevation plus other details from your city location.

Track the satellite on the map from your city or location and see movement details for azimuth, elevation, latitude, longitude, range, height, and movement on the map or in text.







IsCatalogInMostPopularTable: catalog: 43234, numindb: 83
Update: records affected: 1



GetName: 43234 O3B FM13

Hit Count: updated at: Sat, 17 Nov 2018 02:52:05 GMT